| time (UTC) | temp C | wind direction | speed KPH | gust KPH | rain 1hr cm | rain 24hr cm | rain mn cm | humidity % | barometer mb |
| 20260506112143 | 12 | 5 | 8.0 | 19.3 | 0.00 | 0.00 | 0.00 | 67 | 1012.8 |
| 20260506102143 | 12 | 9 | 9.7 | 25.7 | 0.00 | 0.00 | 0.00 | 67 | 1012.8 |
| 20260506092144 | 10 | 10 | 8.0 | 25.7 | 0.00 | 0.00 | 0.00 | 73 | 1012.9 |
| 20260506082144 | 10 | 355 | 9.7 | 20.9 | 0.00 | 0.00 | 0.00 | 76 | 1012.5 |
| 20260506072143 | 8 | 348 | 8.0 | 19.3 | 0.00 | 0.00 | 0.00 | 83 | 1012.7 |
| 20260506062144 | 7 | 49 | 8.0 | 16.1 | 0.00 | 0.00 | 0.00 | 85 | 1012.5 |
| 20260506042143 | 8 | 80 | 8.0 | 20.9 | 0.00 | 0.00 | 0.00 | 84 | 1012.2 |
| 20260506032143 | 8 | 24 | 8.0 | 19.3 | 0.00 | 0.00 | 0.00 | 82 | 1012.1 |
| 20260506022137 | 9 | 33 | 4.8 | 12.9 | 0.00 | 0.00 | 0.00 | 86 | 1012.4 |
| 20260506012137 | 9 | 39 | 4.8 | 12.9 | 0.00 | 0.00 | 0.00 | 84 | 1012.6 |
| 20260506002135 | 10 | 44 | 4.8 | 14.5 | 0.00 | 0.00 | 0.00 | 83 | 1012.8 |
| 20260505232135 | 10 | 50 | 6.4 | 19.3 | 0.00 | 0.00 | 0.00 | 82 | 1012.8 |
| 20260505222134 | 11 | 32 | 8.0 | 14.5 | 0.00 | 0.00 | 0.00 | 84 | 1012.8 |
| 20260505212132 | 11 | 43 | 1.6 | 9.7 | 0.00 | 0.00 | 0.00 | 77 | 1012.7 |
| 20260505202131 | 12 | 46 | 1.6 | 11.3 | 0.00 | 0.00 | 0.00 | 74 | 1012.4 |
| 20260505192129 | 12 | 141 | 0.0 | 8.0 | 0.00 | 0.00 | 0.00 | 74 | 1011.6 |
| 20260505182129 | 13 | 94 | 0.0 | 9.7 | 0.00 | 0.00 | 0.00 | 69 | 1011.2 |
| 20260505172128 | 13 | 123 | 0.0 | 9.7 | 0.00 | 0.00 | 0.00 | 65 | 1011.3 |
| 20260505162130 | 15 | 182 | 1.6 | 11.3 | 0.00 | 0.00 | 0.00 | 60 | 1011.4 |
| 20260505152128 | 16 | 53 | 3.2 | 11.3 | 0.00 | 0.00 | 0.00 | 54 | 1011.4 |
| 20260505122121 | 16 | 49 | 6.4 | 17.7 | 0.00 | 0.00 | 0.00 | 57 | 1011.9 |